| time (UTC) | temp F | wind direction | speed MPH | gust MPH | rain 1hr in | rain 24hr in | rain mn in | humidity % | barometer mb |
| 20260504032630 | 72 | 67 | 1.0 | 3.0 | 0.01 | 0.15 | 0.15 | 89 | 1013.1 |
| 20260504032130 | 72 | 63 | 1.0 | 3.0 | 0.01 | 0.15 | 0.15 | 89 | 1013.1 |
| 20260504031629 | 72 | 88 | 2.0 | 5.0 | 0.01 | 0.15 | 0.15 | 88 | 1013.1 |
| 20260504031532 | 72 | 65 | 0.0 | 5.0 | 0.01 | 0.15 | 0.15 | 88 | 1012.9 |
| 20260504031129 | 73 | 86 | 3.0 | 8.0 | 0.01 | 0.15 | 0.15 | 87 | 1013.1 |
| 20260504030630 | 74 | 82 | 4.0 | 11.0 | 0.00 | 0.14 | 0.14 | 85 | 1013.1 |
| 20260504030131 | 74 | 90 | 5.0 | 11.0 | 0.00 | 0.14 | 0.14 | 84 | 1013.1 |
| 20260504030039 | 73 | 65 | 4.0 | 11.0 | 0.00 | 0.14 | 0.14 | 84 | 1012.8 |
| 20260504025631 | 74 | 119 | 5.0 | 11.0 | 0.00 | 0.14 | 0.14 | 83 | 1012.9 |
| 20260504025129 | 74 | 84 | 5.0 | 11.0 | 0.00 | 0.14 | 0.14 | 83 | 1012.9 |
| 20260504024916 | 74 | 88 | 5.0 | 10.0 | 0.00 | 0.14 | 0.14 | 83 | 1012.9 |
| 20260504024534 | 74 | 63 | 6.0 | 10.0 | 0.00 | 0.14 | 0.14 | 83 | 1012.9 |
| 20260504024131 | 74 | 53 | 4.0 | 9.0 | 0.00 | 0.14 | 0.14 | 83 | 1013.0 |
| 20260504023629 | 74 | 68 | 3.0 | 6.0 | 0.00 | 0.14 | 0.14 | 83 | 1013.0 |
| 20260504023129 | 74 | 44 | 2.0 | 6.0 | 0.00 | 0.14 | 0.14 | 83 | 1013.0 |
| 20260504023030 | 74 | 67 | 2.0 | 6.0 | 0.00 | 0.14 | 0.14 | 83 | 1012.7 |
| 20260504022916 | 74 | 74 | 2.0 | 6.0 | 0.00 | 0.14 | 0.14 | 83 | 1012.9 |
| 20260504022129 | 74 | 78 | 2.0 | 8.0 | 0.00 | 0.14 | 0.14 | 83 | 1012.9 |
| 20260504021630 | 74 | 63 | 2.0 | 8.0 | 0.00 | 0.14 | 0.14 | 83 | 1012.9 |
| 20260504021515 | 74 | 42 | 2.0 | 8.0 | 0.00 | 0.14 | 0.14 | 83 | 1012.5 |
| 20260504021130 | 74 | 85 | 2.0 | 5.0 | 0.00 | 0.14 | 0.14 | 83 | 1012.6 |
| 20260504020927 | 74 | 40 | 2.0 | 6.0 | 0.00 | 0.14 | 0.14 | 82 | 1012.6 |
| 20260504020129 | 74 | 63 | 2.0 | 6.0 | 0.00 | 0.14 | 0.14 | 82 | 1012.6 |
| 20260504020005 | 74 | 41 | 1.0 | 6.0 | 0.00 | 0.15 | 0.14 | 82 | 1012.4 |
| 20260504015630 | 74 | 82 | 3.0 | 9.0 | 0.00 | 0.15 | 0.14 | 83 | 1012.6 |
| 20260504015130 | 74 | 92 | 4.0 | 11.0 | 0.00 | 0.15 | 0.14 | 83 | 1012.6 |
| 20260504014629 | 74 | 92 | 3.0 | 11.0 | 0.00 | 0.15 | 0.14 | 83 | 1012.6 |
| 20260504014504 | 73 | 74 | 3.0 | 9.0 | 0.00 | 0.15 | 0.14 | 83 | 1012.4 |
| 20260504014131 | 74 | 84 | 2.0 | 7.0 | 0.00 | 0.15 | 0.14 | 83 | 1012.5 |
| 20260504013928 | 74 | 55 | 2.0 | 9.0 | 0.00 | 0.15 | 0.14 | 84 | 1012.5 |
| 20260504013130 | 74 | 60 | 3.0 | 9.0 | 0.00 | 0.15 | 0.14 | 84 | 1012.5 |
| 20260504013056 | 73 | 76 | 3.0 | 9.0 | 0.00 | 0.15 | 0.14 | 84 | 1012.4 |
| 20260504012629 | 73 | 61 | 2.0 | 7.0 | 0.00 | 0.15 | 0.14 | 85 | 1012.6 |
| 20260504012129 | 73 | 82 | 2.0 | 7.0 | 0.00 | 0.15 | 0.14 | 85 | 1012.6 |
| 20260504011630 | 73 | 69 | 3.0 | 8.0 | 0.00 | 0.15 | 0.14 | 85 | 1012.6 |
| 20260504011533 | 73 | 95 | 3.0 | 8.0 | 0.00 | 0.15 | 0.14 | 85 | 1012.4 |
| 20260504011132 | 73 | 82 | 3.0 | 8.0 | 0.00 | 0.15 | 0.14 | 85 | 1012.6 |
| 20260504010631 | 73 | 89 | 3.0 | 8.0 | 0.00 | 0.15 | 0.14 | 85 | 1012.6 |
| 20260504010130 | 73 | 80 | 4.0 | 9.0 | 0.00 | 0.15 | 0.14 | 85 | 1012.6 |
| 20260504010022 | 73 | 82 | 4.0 | 9.0 | 0.00 | 0.15 | 0.14 | 86 | 1012.3 |
| 20260504005629 | 73 | 90 | 3.0 | 9.0 | 0.00 | 0.15 | 0.14 | 85 | 1012.4 |
| 20260504005131 | 73 | 78 | 4.0 | 11.0 | 0.00 | 0.15 | 0.14 | 85 | 1012.4 |
| 20260504004723 | 73 | 77 | 3.0 | 6.0 | 0.00 | 0.15 | 0.14 | 86 | 1012.4 |
| 20260504004705 | 73 | 76 | 4.0 | 11.0 | 0.00 | 0.15 | 0.14 | 86 | 1012.4 |
| 20260504004646 | 73 | 71 | 4.0 | 11.0 | 0.00 | 0.15 | 0.14 | 86 | 1012.3 |
| 20260504003630 | 73 | 70 | 2.0 | 6.0 | 0.00 | 0.15 | 0.14 | 86 | 1012.4 |
| 20260504003129 | 73 | 80 | 2.0 | 7.0 | 0.00 | 0.15 | 0.14 | 86 | 1012.4 |
| 20260504003005 | 73 | 67 | 1.0 | 7.0 | 0.00 | 0.15 | 0.14 | 86 | 1011.9 |
| 20260504002629 | 73 | 72 | 3.0 | 7.0 | 0.00 | 0.15 | 0.14 | 86 | 1012.0 |
| 20260504002129 | 73 | 72 | 5.0 | 14.0 | 0.00 | 0.15 | 0.14 | 86 | 1012.0 |
| 20260504001630 | 73 | 70 | 5.0 | 14.0 | 0.00 | 0.15 | 0.14 | 85 | 1012.0 |
| 20260504001505 | 73 | 93 | 7.0 | 14.0 | 0.00 | 0.15 | 0.14 | 86 | 1012.0 |
| 20260504001128 | 73 | 66 | 4.0 | 11.0 | 0.00 | 0.15 | 0.14 | 85 | 1012.1 |
| 20260504000630 | 73 | 110 | 4.0 | 10.0 | 0.00 | 0.15 | 0.14 | 85 | 1012.1 |
| 20260504000129 | 73 | 101 | 5.0 | 13.0 | 0.00 | 0.15 | 0.14 | 85 | 1012.1 |
| 20260504000003 | 73 | 83 | 5.0 | 13.0 | 0.00 | 0.15 | 0.14 | 85 | 1011.9 |
| 20260503235629 | 73 | 86 | 4.0 | 13.0 | 0.00 | 0.15 | 0.14 | 85 | 1012.0 |
| 20260503235128 | 73 | 102 | 2.0 | 6.0 | 0.00 | 0.15 | 0.14 | 85 | 1012.0 |
| 20260503234630 | 73 | 80 | 2.0 | 7.0 | 0.00 | 0.15 | 0.14 | 86 | 1012.0 |
| 20260503234552 | 73 | 104 | 2.0 | 7.0 | 0.00 | 0.15 | 0.14 | 86 | 1011.9 |
| 20260503234127 | 73 | 82 | 2.0 | 7.0 | 0.00 | 0.15 | 0.14 | 85 | 1012.0 |
| 20260503233916 | 73 | 53 | 3.0 | 8.0 | 0.00 | 0.15 | 0.14 | 86 | 1012.0 |
| 20260503233108 | 73 | 66 | 3.0 | 8.0 | 0.00 | 0.15 | 0.14 | 86 | 1012.0 |
| 20260503233040 | 73 | 66 | 2.0 | 8.0 | 0.00 | 0.15 | 0.14 | 86 | 1011.7 |
| 20260503232904 | 73 | 17 | 2.0 | 7.0 | 0.00 | 0.15 | 0.14 | 86 | 1011.8 |
| 20260503232105 | 73 | 88 | 2.0 | 7.0 | 0.00 | 0.15 | 0.14 | 85 | 1011.8 |
| 20260503231603 | 73 | 74 | 2.0 | 7.0 | 0.00 | 0.15 | 0.14 | 85 | 1011.8 |
| 20260503231533 | 73 | 53 | 2.0 | 6.0 | 0.00 | 0.15 | 0.14 | 84 | 1011.7 |
| 20260503231356 | 74 | 37 | 2.0 | 7.0 | 0.00 | 0.15 | 0.14 | 84 | 1011.8 |
| 20260503230603 | 74 | 58 | 2.0 | 11.0 | 0.00 | 0.15 | 0.14 | 83 | 1011.8 |
| 20260503230017 | 73 | 82 | 2.0 | 11.0 | 0.00 | 0.18 | 0.14 | 82 | 1011.5 |
| 20260503225600 | 74 | 90 | 2.0 | 5.0 | 0.00 | 0.15 | 0.14 | 83 | 1011.7 |
| 20260503225351 | 74 | 71 | 2.0 | 7.0 | 0.00 | 0.17 | 0.14 | 82 | 1011.7 |
| 20260503224603 | 74 | 92 | 2.0 | 7.0 | 0.00 | 0.18 | 0.14 | 83 | 1011.7 |
| 20260503224504 | 74 | 78 | 1.0 | 7.0 | 0.00 | 0.18 | 0.14 | 83 | 1011.5 |
| 20260503224102 | 74 | 80 | 2.0 | 5.0 | 0.00 | 0.18 | 0.14 | 82 | 1011.6 |
| 20260503223602 | 74 | 69 | 2.0 | 5.0 | 0.00 | 0.18 | 0.14 | 82 | 1011.6 |
| 20260503223104 | 74 | 76 | 2.0 | 8.0 | 0.00 | 0.18 | 0.14 | 82 | 1011.6 |
| 20260503223008 | 73 | 82 | 1.0 | 8.0 | 0.00 | 0.18 | 0.14 | 82 | 1011.8 |
| 20260503222602 | 74 | 74 | 3.0 | 8.0 | 0.00 | 0.18 | 0.14 | 82 | 1011.9 |
| 20260503222102 | 74 | 62 | 2.0 | 6.0 | 0.00 | 0.18 | 0.14 | 83 | 1011.9 |
| 20260503221602 | 74 | 90 | 2.0 | 6.0 | 0.00 | 0.18 | 0.14 | 83 | 1011.9 |
| 20260503221503 | 73 | 90 | 0.0 | 5.0 | 0.00 | 0.18 | 0.14 | 83 | 1011.9 |
| 20260503221104 | 74 | 76 | 2.0 | 8.0 | 0.00 | 0.18 | 0.14 | 82 | 1012.0 |
| 20260503220553 | 74 | 52 | 2.0 | 8.0 | 0.00 | 0.18 | 0.14 | 82 | 1012.0 |
| 20260503220331 | 74 | 84 | 2.0 | 6.0 | 0.00 | 0.18 | 0.14 | 83 | 1011.9 |
| 20260503220012 | 73 | 82 | 2.0 | 5.0 | 0.00 | 0.18 | 0.14 | 83 | 1011.8 |
| 20260503215535 | 74 | 67 | 2.0 | 7.0 | 0.00 | 0.18 | 0.14 | 82 | 1011.9 |
| 20260503215034 | 74 | 38 | 3.0 | 10.0 | 0.00 | 0.18 | 0.14 | 82 | 1011.9 |
| 20260503214534 | 74 | 78 | 2.0 | 10.0 | 0.00 | 0.18 | 0.14 | 82 | 1012.0 |
| 20260503214510 | 73 | 75 | 3.0 | 10.0 | 0.00 | 0.18 | 0.14 | 82 | 1011.9 |
| 20260503214033 | 74 | 40 | 2.0 | 7.0 | 0.00 | 0.18 | 0.14 | 82 | 1012.0 |
| 20260503213533 | 74 | 87 | 2.0 | 6.0 | 0.00 | 0.18 | 0.14 | 83 | 1012.0 |
| 20260503213124 | 74 | 86 | 2.0 | 7.0 | 0.00 | 0.18 | 0.14 | 81 | 1011.9 |
| 20260503213109 | 74 | 33 | 2.0 | 5.0 | 0.00 | 0.18 | 0.14 | 82 | 1011.9 |
| 20260503213049 | 73 | 17 | 1.0 | 4.0 | 0.00 | 0.18 | 0.14 | 82 | 1011.8 |
| 20260503212031 | 74 | 101 | 2.0 | 7.0 | 0.00 | 0.18 | 0.14 | 82 | 1011.9 |
| 20260503211531 | 74 | 82 | 2.0 | 5.0 | 0.00 | 0.18 | 0.14 | 83 | 1012.0 |
| 20260503211528 | 73 | 86 | 1.0 | 5.0 | 0.00 | 0.18 | 0.14 | 83 | 1011.9 |
| 20260503211030 | 74 | 26 | 2.0 | 9.0 | 0.00 | 0.18 | 0.14 | 83 | 1012.0 |
| 20260503210530 | 73 | 21 | 2.0 | 9.0 | 0.00 | 0.18 | 0.14 | 84 | 1012.0 |
| 20260503210030 | 73 | 52 | 2.0 | 6.0 | 0.00 | 0.18 | 0.14 | 84 | 1012.2 |
| 20260503210020 | 73 | 18 | 2.0 | 5.0 | 0.00 | 0.18 | 0.14 | 84 | 1012.1 |
| 20260503205529 | 73 | 106 | 2.0 | 8.0 | 0.00 | 0.18 | 0.14 | 84 | 1012.2 |
| 20260503205031 | 73 | 78 | 2.0 | 8.0 | 0.00 | 0.18 | 0.14 | 84 | 1012.2 |
| 20260503204600 | 73 | 75 | 2.0 | 5.0 | 0.00 | 0.18 | 0.14 | 84 | 1012.1 |
| 20260503204531 | 73 | 54 | 1.0 | 5.0 | 0.00 | 0.18 | 0.14 | 84 | 1012.5 |
| 20260503204029 | 73 | 49 | 1.0 | 5.0 | 0.00 | 0.18 | 0.14 | 84 | 1012.5 |
| 20260503203529 | 73 | 67 | 1.0 | 3.0 | 0.00 | 0.18 | 0.14 | 83 | 1012.5 |
| 20260503203041 | 73 | 73 | 0.0 | 4.0 | 0.00 | 0.18 | 0.14 | 83 | 1012.4 |
| 20260503203029 | 73 | 73 | 1.0 | 5.0 | 0.00 | 0.18 | 0.14 | 83 | 1012.6 |
| 20260503202530 | 73 | 46 | 1.0 | 5.0 | 0.00 | 0.18 | 0.14 | 84 | 1012.6 |
| 20260503202031 | 73 | 49 | 1.0 | 4.0 | 0.00 | 0.18 | 0.14 | 84 | 1012.6 |
| 20260503201533 | 73 | 27 | 2.0 | 4.0 | 0.00 | 0.18 | 0.14 | 84 | 1012.6 |
| 20260503201528 | 72 | 27 | 0.0 | 4.0 | 0.00 | 0.18 | 0.14 | 84 | 1012.4 |
| 20260503201030 | 73 | 36 | 2.0 | 6.0 | 0.00 | 0.18 | 0.14 | 83 | 1012.6 |
| 20260503200828 | 73 | 44 | 2.0 | 9.0 | 0.00 | 0.18 | 0.14 | 83 | 1012.6 |
| 20260503200030 | 73 | 73 | 2.0 | 9.0 | 0.00 | 0.18 | 0.14 | 84 | 1012.5 |
| 20260503200006 | 73 | 73 | 2.0 | 9.0 | 0.00 | 0.18 | 0.14 | 84 | 1012.4 |
| 20260503195523 | 73 | 72 | 1.0 | 5.0 | 0.00 | 0.18 | 0.14 | 84 | 1012.5 |
| 20260503195019 | 73 | 78 | 2.0 | 7.0 | 0.00 | 0.18 | 0.14 | 84 | 1012.5 |
| 20260503194510 | 73 | 48 | 3.0 | 8.0 | 0.00 | 0.18 | 0.14 | 84 | 1012.6 |
| 20260503194504 | 73 | 49 | 2.0 | 7.0 | 0.00 | 0.18 | 0.14 | 84 | 1012.4 |
| 20260503194008 | 73 | 111 | 3.0 | 8.0 | 0.00 | 0.18 | 0.14 | 83 | 1012.6 |
| 20260503193507 | 73 | 10 | 2.0 | 6.0 | 0.00 | 0.18 | 0.14 | 83 | 1012.6 |
| 20260503193006 | 73 | 66 | 2.0 | 7.0 | 0.00 | 0.18 | 0.14 | 83 | 1012.6 |
| 20260503193004 | 73 | 66 | 2.0 | 7.0 | 0.00 | 0.18 | 0.14 | 83 | 1012.4 |
| 20260503192504 | 73 | 57 | 3.0 | 10.0 | 0.00 | 0.18 | 0.14 | 83 | 1012.6 |
| 20260503192004 | 73 | 101 | 3.0 | 10.0 | 0.00 | 0.18 | 0.14 | 83 | 1012.6 |
| 20260503191604 | 72 | 355 | 2.0 | 6.0 | 0.00 | 0.18 | 0.14 | 84 | 1012.9 |
| 20260503191502 | 73 | 28 | 3.0 | 7.0 | 0.00 | 0.18 | 0.14 | 84 | 1013.0 |
| 20260503191002 | 73 | 78 | 3.0 | 9.0 | 0.00 | 0.18 | 0.14 | 84 | 1013.0 |
| 20260503190500 | 73 | 31 | 3.0 | 9.0 | 0.00 | 0.18 | 0.14 | 85 | 1013.0 |
| 20260503190301 | 73 | 29 | 3.0 | 11.0 | 0.00 | 0.18 | 0.14 | 85 | 1013.1 |
| 20260503185759 | 73 | 55 | 3.0 | 11.0 | 0.00 | 0.18 | 0.14 | 85 | 1013.1 |
| 20260503185001 | 73 | 31 | 2.0 | 9.0 | 0.00 | 0.18 | 0.14 | 86 | 1013.1 |
| 20260503184606 | 72 | 44 | 3.0 | 10.0 | 0.00 | 0.18 | 0.14 | 86 | 1013.4 |
| 20260503184555 | 72 | 55 | 2.0 | 10.0 | 0.00 | 0.18 | 0.14 | 86 | 1013.3 |
| 20260503184539 | 72 | 56 | 3.0 | 10.0 | 0.00 | 0.18 | 0.14 | 86 | 1013.4 |
| 20260503184519 | 72 | 47 | 1.0 | 10.0 | 0.00 | 0.18 | 0.14 | 86 | 1013.3 |
| 20260503183501 | 72 | 36 | 2.0 | 8.0 | 0.00 | 0.18 | 0.14 | 86 | 1013.4 |
| 20260503183037 | 72 | 14 | 1.0 | 7.0 | 0.00 | 0.18 | 0.14 | 86 | 1013.4 |
| 20260503183002 | 72 | 14 | 3.0 | 7.0 | 0.00 | 0.18 | 0.14 | 86 | 1013.6 |
| 20260503182503 | 72 | 30 | 3.0 | 8.0 | 0.00 | 0.18 | 0.14 | 86 | 1013.6 |
| 20260503182002 | 72 | 20 | 3.0 | 8.0 | 0.00 | 0.18 | 0.14 | 86 | 1013.6 |
| 20260503181540 | 72 | 334 | 3.0 | 8.0 | 0.00 | 0.18 | 0.14 | 85 | 1013.5 |
| 20260503181502 | 72 | 45 | 3.0 | 8.0 | 0.00 | 0.18 | 0.14 | 85 | 1013.6 |
| 20260503181001 | 72 | 325 | 2.0 | 8.0 | 0.00 | 0.18 | 0.14 | 85 | 1013.6 |
| 20260503180502 | 72 | 53 | 3.0 | 8.0 | 0.00 | 0.18 | 0.14 | 86 | 1013.6 |
| 20260503180015 | 72 | 351 | 2.0 | 8.0 | 0.00 | 0.18 | 0.14 | 86 | 1013.5 |
| 20260503180002 | 72 | 351 | 3.0 | 8.0 | 0.00 | 0.18 | 0.14 | 86 | 1013.6 |
| 20260503175754 | 72 | 34 | 3.0 | 6.0 | 0.00 | 0.18 | 0.14 | 86 | 1013.6 |
| 20260503175257 | 72 | 28 | 2.0 | 5.0 | 0.00 | 0.18 | 0.14 | 86 | 1013.6 |
| 20260503174513 | 72 | 31 | 2.0 | 6.0 | 0.00 | 0.18 | 0.14 | 86 | 1013.5 |
| 20260503174509 | 72 | 31 | 2.0 | 6.0 | 0.00 | 0.18 | 0.14 | 86 | 1013.6 |
| 20260503174005 | 72 | 332 | 2.0 | 6.0 | 0.00 | 0.18 | 0.14 | 86 | 1013.6 |
| 20260503173752 | 72 | 22 | 2.0 | 6.0 | 0.00 | 0.18 | 0.14 | 86 | 1013.6 |
| 20260503173009 | 72 | 66 | 1.0 | 5.0 | 0.00 | 0.18 | 0.14 | 87 | 1013.6 |
| 20260503173004 | 72 | 63 | 2.0 | 5.0 | 0.00 | 0.18 | 0.14 | 87 | 1013.7 |
| 20260503172503 | 72 | 37 | 2.0 | 5.0 | 0.00 | 0.18 | 0.14 | 87 | 1013.7 |
| 20260503172005 | 72 | 30 | 2.0 | 7.0 | 0.00 | 0.18 | 0.14 | 87 | 1013.7 |
| 20260503171510 | 71 | 28 | 1.0 | 7.0 | 0.00 | 0.18 | 0.14 | 87 | 1013.7 |
| 20260503171502 | 72 | 28 | 2.0 | 7.0 | 0.00 | 0.18 | 0.14 | 87 | 1013.9 |
| 20260503171004 | 72 | 30 | 2.0 | 6.0 | 0.00 | 0.18 | 0.14 | 88 | 1013.9 |
| 20260503170504 | 72 | 47 | 3.0 | 7.0 | 0.00 | 0.18 | 0.14 | 88 | 1013.9 |
| 20260503151002 | 73 | 337 | 3.0 | 10.0 | 0.00 | 0.18 | 0.14 | 88 | 1013.9 |
| 20260503150501 | 72 | 11 | 4.0 | 10.0 | 0.00 | 0.18 | 0.14 | 88 | 1013.9 |
| 20260503131003 | 71 | 40 | 3.0 | 8.0 | 0.00 | 0.18 | 0.14 | 90 | 1012.6 |
| 20260503130501 | 71 | 24 | 4.0 | 10.0 | 0.00 | 0.18 | 0.14 | 91 | 1012.6 |
| 20260503110502 | 69 | 46 | 4.0 | 8.0 | 0.00 | 0.18 | 0.14 | 94 | 1011.1 |
| 20260503110302 | 69 | 330 | 4.0 | 9.0 | 0.00 | 0.18 | 0.14 | 94 | 1010.9 |
| 20260503090502 | 70 | 336 | 2.0 | 5.0 | 0.01 | 0.05 | 0.01 | 93 | 1010.5 |
| 20260503081510 | 70 | 290 | 0.0 | 2.0 | 0.00 | 0.04 | 0.00 | 92 | 1010.3 |
| 20260503081452 | 71 | 290 | 1.0 | 2.0 | 0.00 | 0.04 | 0.00 | 92 | 1010.4 |
| 20260503080952 | 71 | 325 | 0.0 | 2.0 | 0.00 | 0.04 | 0.00 | 92 | 1010.4 |
| 20260503080448 | 71 | 325 | 0.0 | 2.0 | 0.00 | 0.04 | 0.00 | 92 | 1010.4 |
| 20260503072939 | 71 | 276 | 0.0 | 1.0 | 0.00 | 0.04 | 0.00 | 92 | 1009.7 |
| 20260503072438 | 71 | 279 | 0.0 | 1.0 | 0.00 | 0.04 | 0.00 | 92 | 1009.7 |
| 20260503071940 | 71 | 279 | 0.0 | 1.0 | 0.00 | 0.04 | 0.00 | 92 | 1009.7 |
| 20260503071734 | 71 | 279 | 0.0 | 1.0 | 0.00 | 0.04 | 0.00 | 92 | 1009.8 |
| 20260503071655 | 70 | 279 | 0.0 | 1.0 | 0.00 | 0.04 | 0.00 | 92 | 1009.6 |
| 20260503071228 | 71 | 288 | 0.0 | 1.0 | 0.00 | 0.04 | 0.00 | 92 | 1009.8 |
| 20260503070436 | 71 | 288 | 0.0 | 1.0 | 0.00 | 0.04 | 0.00 | 92 | 1009.8 |
| 20260503060231 | 71 | 263 | 1.0 | 4.0 | 0.00 | 0.04 | 0.00 | 92 | 1010.4 |
| 20260503060153 | 71 | 304 | 1.0 | 4.0 | 0.00 | 0.04 | 0.00 | 92 | 1009.8 |
| 20260503054930 | 71 | 294 | 1.0 | 4.0 | 0.00 | 0.04 | 0.00 | 92 | 1010.4 |
| 20260503054547 | 72 | 277 | 1.0 | 4.0 | 0.00 | 0.04 | 0.00 | 92 | 1010.6 |
| 20260503054538 | 71 | 344 | 1.0 | 4.0 | 0.00 | 0.04 | 0.00 | 92 | 1010.5 |
| 20260503054519 | 72 | 263 | 1.0 | 4.0 | 0.00 | 0.04 | 0.00 | 92 | 1010.6 |
| 20260503053430 | 72 | 309 | 1.0 | 4.0 | 0.00 | 0.04 | 0.00 | 92 | 1010.6 |
| 20260503053014 | 71 | 270 | 0.0 | 3.0 | 0.00 | 0.04 | 0.00 | 92 | 1010.6 |
| 20260503052933 | 72 | 250 | 0.0 | 3.0 | 0.00 | 0.04 | 0.00 | 92 | 1010.7 |
| 20260503052736 | 72 | 259 | 0.0 | 2.0 | 0.00 | 0.04 | 0.00 | 92 | 1010.7 |
| 20260503051930 | 72 | 261 | 0.0 | 1.0 | 0.00 | 0.04 | 0.00 | 92 | 1010.7 |
| 20260503051506 | 72 | 259 | 0.0 | 1.0 | 0.00 | 0.04 | 0.00 | 92 | 1010.5 |
| 20260503051429 | 72 | 269 | 0.0 | 1.0 | 0.00 | 0.04 | 0.00 | 92 | 1010.6 |
| 20260503050930 | 72 | 207 | 0.0 | 1.0 | 0.00 | 0.04 | 0.00 | 92 | 1010.6 |
| 20260503050429 | 72 | 247 | 0.0 | 2.0 | 0.00 | 0.04 | 0.00 | 92 | 1010.6 |
| 20260503050007 | 72 | 247 | 0.0 | 2.0 | 0.00 | 0.04 | 0.00 | 92 | 1010.4 |
| 20260503045926 | 72 | 255 | 0.0 | 2.0 | 0.00 | 0.04 | 0.00 | 92 | 1010.5 |
| 20260503045426 | 73 | 229 | 0.0 | 2.0 | 0.00 | 0.04 | 0.00 | 91 | 1010.5 |
| 20260503044925 | 73 | 238 | 0.0 | 2.0 | 0.00 | 0.04 | 0.00 | 91 | 1010.5 |
| 20260503044618 | 72 | 257 | 0.0 | 2.0 | 0.00 | 0.04 | 0.00 | 91 | 1010.4 |
| 20260503044425 | 73 | 269 | 0.0 | 2.0 | 0.00 | 0.04 | 0.00 | 91 | 1010.1 |
| 20260503043925 | 73 | 221 | 1.0 | 2.0 | 0.00 | 0.04 | 0.00 | 91 | 1010.1 |
| 20260503043424 | 73 | 233 | 0.0 | 2.0 | 0.00 | 0.04 | 0.00 | 91 | 1010.1 |
| 20260503043048 | 72 | 234 | 0.0 | 1.0 | 0.00 | 0.04 | 0.00 | 91 | 1010.0 |
| 20260503042923 | 73 | 263 | 0.0 | 1.0 | 0.00 | 0.04 | 0.00 | 91 | 1009.8 |
| 20260503042423 | 73 | 331 | 0.0 | 2.0 | 0.00 | 0.04 | 0.00 | 90 | 1009.8 |
| 20260503041925 | 73 | 331 | 0.0 | 2.0 | 0.00 | 0.04 | 0.00 | 90 | 1009.8 |
| 20260503041535 | 73 | 334 | 0.0 | 2.0 | 0.00 | 0.04 | 0.00 | 90 | 1010.0 |
| 20260503041421 | 73 | 273 | 0.0 | 2.0 | 0.00 | 0.04 | 0.00 | 90 | 1010.1 |
| 20260503040915 | 73 | 271 | 0.0 | 2.0 | 0.00 | 0.04 | 0.00 | 90 | 1010.1 |
| 20260503040405 | 73 | 287 | 1.0 | 3.0 | 0.00 | 0.04 | 0.00 | 90 | 1010.1 |
| 20260503040027 | 73 | 287 | 0.0 | 3.0 | 0.00 | 0.04 | 0.04 | 90 | 1010.1 |
| 20260503035903 | 73 | 288 | 1.0 | 4.0 | 0.00 | 0.04 | 0.04 | 90 | 1010.2 |
| 20260503035403 | 73 | 288 | 1.0 | 4.0 | 0.00 | 0.04 | 0.04 | 90 | 1010.2 |
| 20260503034905 | 74 | 266 | 1.0 | 4.0 | 0.00 | 0.04 | 0.04 | 90 | 1010.2 |
| 20260503034504 | 73 | 286 | 0.0 | 4.0 | 0.00 | 0.04 | 0.04 | 90 | 1009.8 |
| 20260503034404 | 74 | 307 | 1.0 | 4.0 | 0.00 | 0.04 | 0.04 | 90 | 1009.9 |
| 20260503033903 | 74 | 277 | 1.0 | 5.0 | 0.00 | 0.04 | 0.04 | 90 | 1009.9 |
| 20260503033700 | 74 | 297 | 2.0 | 7.0 | 0.00 | 0.04 | 0.04 | 90 | 1009.9 |
| 20260503033004 | 73 | 240 | 1.0 | 7.0 | 0.00 | 0.04 | 0.04 | 89 | 1009.3 |